Weather History for KHEI - October, 2013

Change the Weather History Date:

Monday, October 21, 2013

  Actual Average Record
Temperature  
Mean Temperature 38 °F -  
Max Temperature 49 °F 54 °F 83 °F (2014)
Min Temperature 26 °F 28 °F 9 °F (1997)
Degree Days  
Heating Degree Days 27 24  
Month to date heating degree days 490 420  
Since 1 July heating degree days 651 791  
Cooling Degree Days 0 0  
Month to date cooling degree days 0 0  
Year to date cooling degree days 320 376  
Moisture  
Dew Point 38 °F    
Average Humidity 88    
Maximum Humidity 93    
Minimum Humidity 82    
Precipitation  
Precipitation 0.15 in 0.05 in 0.19 in (2008)
Month to date precipitation 4.52 0.76  
Year to date precipitation 24.50 14.68  
Sea Level Pressure  
Sea Level Pressure 29.95 in    
Wind  
Wind Speed 6 mph (NW)    
Max Wind Speed 18 mph    
Max Gust Speed 26 mph    
Visibility 10 miles    
Events Rain    
T = Trace of Precipitation, MM = Missing Value Source: NWS Daily Summary

Daily Weather History Graph

Daily Weather History Graph

Search for Another Location

Airport or City:

Trip Planner

Search our weather history database for the weather conditions in past years. The results will help you decide how hot, cold, wet, or windy it might be!

Date:

Astronomy

Oct. 21, 2013 Rise Set
Actual Time 7:16 AM MDT 5:53 PM MDT
Civil Twilight 6:45 AM MDT 6:23 PM MDT
Nautical Twilight 6:10 AM MDT 6:58 PM MDT
Astronomical Twilight 5:36 AM MDT 7:33 PM MDT
Moon 7:39 PM MDT (10/21) 10:00 AM MDT (10/21)
Length of Visible Light 11h 38m
Length of Day
10h 37m
Waning Gibbous, 92% of the Moon is Illuminated
Oct 21
Waning Gibbous
Oct 26
Last Quarter
Nov 3
New
Nov 9
First Quarter
Nov 17
Full

Hourly Weather History & Observations

Time (MDT) Temp. Windchill Dew Point Humidity Pressure Visibility Wind Dir Wind Speed Gust Speed Precip Events Conditions
12:53 AM 28.9 °F - 25.0 °F 85% 30.07 in 10.0 mi Calm Calm - N/A   Overcast
1:53 AM 28.0 °F 22.8 °F 25.0 °F 88% 30.07 in 10.0 mi WNW 4.6 mph - N/A   Mostly Cloudy
2:53 AM 28.9 °F 25.2 °F 26.1 °F 89% 30.05 in 10.0 mi NW 3.5 mph - N/A   Overcast
3:53 AM 32.0 °F 24.8 °F 28.9 °F 88% 30.04 in 10.0 mi West 8.1 mph - N/A   Overcast
4:53 AM 35.1 °F 27.9 °F 32.0 °F 89% 30.04 in 10.0 mi WNW 9.2 mph - N/A   Overcast
5:53 AM 34.0 °F 29.8 °F 30.9 °F 89% 30.03 in 10.0 mi NW 4.6 mph - 0.00 in   Overcast
6:53 AM 35.1 °F - 33.1 °F 92% 30.00 in 7.0 mi Calm Calm - 0.00 in Rain Light Rain
7:38 AM 35.6 °F 31.7 °F 33.8 °F 93% 29.93 in 10.0 mi SSW 4.6 mph - 0.01 in Rain Light Rain
7:53 AM 35.1 °F - 33.1 °F 92% 29.99 in 10.0 mi Calm Calm - 0.01 in Rain Light Rain
8:53 AM 36.0 °F - 34.0 °F 93% 29.99 in 10.0 mi Calm Calm - 0.00 in   Overcast
9:53 AM 37.0 °F 34.5 °F 34.0 °F 89% 30.00 in 10.0 mi SE 3.5 mph - N/A   Overcast
10:53 AM 37.9 °F 34.4 °F 35.1 °F 89% 30.00 in 10.0 mi East 4.6 mph - 0.00 in   Overcast
11:01 AM 37.4 °F 33.8 °F 35.6 °F 93% 29.93 in 10.0 mi East 4.6 mph - N/A   Overcast
11:45 AM 41.0 °F - 37.4 °F 87% 29.93 in 10.0 mi Calm Calm - N/A   Overcast
11:53 AM 41.0 °F - 37.0 °F 86% 30.00 in 10.0 mi Calm Calm - N/A   Overcast
12:10 PM 42.8 °F - 37.4 °F 81% 29.92 in 10.0 mi Calm Calm - N/A   Overcast
12:53 PM 44.1 °F - 39.0 °F 82% 29.97 in 10.0 mi Calm Calm - N/A   Overcast
1:12 PM 44.6 °F 43.1 °F 39.2 °F 81% 29.90 in 10.0 mi WNW 3.5 mph - N/A   Overcast
1:53 PM 48.0 °F - 41.0 °F 77% 29.94 in 10.0 mi NW 4.6 mph - 0.00 in Rain Light Rain
2:06 PM 48.2 °F - 39.2 °F 71% 29.87 in 10.0 mi NW 6.9 mph - N/A   Overcast
2:23 PM 48.2 °F - 41.0 °F 76% 29.87 in 10.0 mi NW 9.2 mph - N/A   Overcast
2:53 PM 46.9 °F - 41.0 °F 80% 29.93 in 9.0 mi WNW 9.2 mph - 0.01 in Rain Light Rain
3:36 PM 46.4 °F 40.1 °F 42.8 °F 87% 29.88 in 9.0 mi WNW 15.0 mph 23.0 mph 0.03 in Rain Light Rain
3:53 PM 46.0 °F 39.3 °F 41.0 °F 83% 29.92 in 10.0 mi NW 16.1 mph - 0.04 in Rain Light Rain
4:31 PM 44.6 °F 39.2 °F 42.8 °F 93% 29.88 in 7.0 mi WNW 10.4 mph - 0.02 in Rain Light Rain
4:39 PM 44.6 °F 39.2 °F 42.8 °F 93% 29.87 in 10.0 mi West 10.4 mph - 0.02 in Rain Light Rain
4:53 PM 45.0 °F 38.2 °F 42.1 °F 90% 29.91 in 10.0 mi WNW 15.0 mph - 0.02 in   Overcast
5:53 PM 45.0 °F 38.2 °F 42.1 °F 90% 29.91 in 10.0 mi West 15.0 mph - 0.00 in Rain Light Rain
6:16 PM 44.6 °F 38.8 °F 42.8 °F 93% 29.86 in 10.0 mi West 11.5 mph - 0.00 in   Overcast
6:44 PM 44.6 °F 38.4 °F 42.8 °F 93% 29.86 in 10.0 mi West 12.7 mph - 0.00 in   Overcast
6:53 PM 45.0 °F 38.9 °F 42.1 °F 90% 29.91 in 10.0 mi West 12.7 mph - 0.00 in   Overcast
7:53 PM 44.1 °F 39.0 °F 41.0 °F 89% 29.93 in 10.0 mi NW 9.2 mph - 0.06 in   Mostly Cloudy
8:10 PM 44.6 °F 40.2 °F 41.0 °F 87% 29.88 in 10.0 mi NW 8.1 mph - N/A   Mostly Cloudy
8:19 PM 44.6 °F 40.2 °F 42.8 °F 93% 29.89 in 10.0 mi NW 8.1 mph - N/A   Mostly Cloudy
8:53 PM 44.1 °F 37.1 °F 41.0 °F 89% 29.95 in 9.0 mi NNW 15.0 mph 21.9 mph 0.00 in Rain Light Rain
9:07 PM 44.6 °F 38.1 °F 41.0 °F 87% 29.90 in 10.0 mi NNW 13.8 mph 20.7 mph 0.00 in   Mostly Cloudy
9:16 PM 44.6 °F 38.4 °F 42.8 °F 93% 29.91 in 10.0 mi NNW 12.7 mph 20.7 mph 0.01 in   Mostly Cloudy
9:53 PM 44.1 °F 39.0 °F 41.0 °F 89% 29.97 in 10.0 mi NNW 9.2 mph - 0.01 in   Clear
10:51 PM 41.0 °F 38.0 °F 39.2 °F 93% 29.93 in 10.0 mi WNW 4.6 mph - N/A   Mostly Cloudy
10:53 PM 41.0 °F 38.0 °F 39.0 °F 93% 29.99 in 10.0 mi WNW 4.6 mph - N/A   Mostly Cloudy
11:11 PM 41.0 °F 38.0 °F 39.2 °F 93% 29.94 in 10.0 mi NW 4.6 mph - N/A   Mostly Cloudy
11:53 PM 41.0 °F 38.0 °F 39.0 °F 93% 29.99 in 10.0 mi NNW 4.6 mph - N/A   Overcast